Location: Canazei
(46.4667°N, 11.7667°E)
Time: 03:53:48
(UTC+00:00)

IRAS Rocket - Pass Details

Date: 21 April 2021
Orbit: 848 x 877 km, 100.1° (Epoch: 10 May)

Event Time Altitude Azimuth Distance (km) Brightness Sun altitude
Rises 03:03:10 0° 165° (SSE) 3,403 7.2 -12.1°
Reaches altitude 10° 03:05:31 10° 167° (SSE) 2,474 6.4 -11.7°
Maximum altitude 03:11:01 79° 254° (WSW) 878 4.2 -10.9°
Drops below altitude 10° 03:16:36 10° 341° (NNW) 2,510 6.8 -10.1°
Sets 03:19:00 0° 343° (NNW) 3,455 7.5 -9.7°
